Binghamton, NY

11:32 PM EST on December 13, 2019 (GMT -0500)
Binghamton Regional-Link

Weather History for KBGM - May, 2019

Change the Weather History Date:

Monday, May 20, 2019

  Actual Average Record
Temperature  
Mean Temperature 63 °F 57 °F  
Max Temperature 76 °F 67 °F 89 °F (1996)
Min Temperature 49 °F 47 °F 30 °F (2002)
Degree Days  
Heating Degree Days 2 9  
Month to date heating degree days 222 227  
Since 1 July heating degree days 7012 7026  
Cooling Degree Days 0 1  
Month to date cooling degree days 4 8  
Year to date cooling degree days 4 12  
Growing Degree Days 14 (Base 50)    
Moisture  
Dew Point 57 °F    
Average Humidity 72    
Maximum Humidity 97    
Minimum Humidity 46    
Precipitation  
Precipitation 0.16 in 0.13 in 1.40 in (1971)
Month to date precipitation 3.95 2.22  
Year to date precipitation 15.43 13.40  
Snow  
Snow 0.00 in 0.00 in T in (2008)
Month to date snowfall 0.0 0.1  
Since 1 July snowfall 81.4 83.4  
Snow Depth 0.00 in    
Sea Level Pressure  
Sea Level Pressure 29.80 in    
Wind  
Wind Speed 13 mph (WSW)    
Max Wind Speed 23 mph    
Max Gust Speed 32 mph    
Visibility 9 miles    
Events Rain , Thunderstorm    
T = Trace of Precipitation, MM = Missing Value Source: NWS Daily Summary

Daily Weather History Graph

Daily Weather History Graph

Search for Another Location

Airport or City:

Astronomy

May. 20, 2019 Rise Set
Actual Time 5:38 AM EDT 8:23 PM EDT
Civil Twilight 5:05 AM EDT 8:55 PM EDT
Nautical Twilight 4:24 AM EDT 9:36 PM EDT
Astronomical Twilight 3:38 AM EDT 10:24 PM EDT
Moon 10:22 PM EDT (5/20) 7:04 AM EDT (5/20)
Length of Visible Light 15h 49m
Length of Day
14h 44m
Waning Gibbous, 96% of the Moon is Illuminated
May 20
Waning Gibbous
May 26
Last Quarter
Jun 3
New
Jun 10
First Quarter
Jun 17
Full

Hourly Weather History & Observations

Time (EDT) Temp. Dew Point Humidity Pressure Visibility Wind Dir Wind Speed Gust Speed Precip Events Conditions
12:53 AM 68.0 °F 62.1 °F 81% 29.79 in 10.0 mi SSW 12.7 mph 21.9 mph N/A   Overcast
1:25 AM 66.0 °F 63.0 °F 90% 29.84 in 4.0 mi West 5.8 mph - 0.03 in Rain , Thunderstorm Light Thunderstorms and Rain
1:40 AM 64.9 °F 63.0 °F 93% 29.83 in 10.0 mi WSW 9.2 mph - 0.03 in   Overcast
1:46 AM 64.9 °F 63.0 °F 93% 29.84 in 10.0 mi WSW 8.1 mph - 0.03 in Thunderstorm Thunderstorm
1:51 AM 64.4 °F 62.6 °F 94% 29.84 in 8.0 mi SW 5.8 mph - 0.03 in Rain , Thunderstorm Light Thunderstorms and Rain
1:53 AM 64.9 °F 63.0 °F 93% 29.81 in 8.0 mi WSW 5.8 mph - 0.03 in Rain , Thunderstorm Light Thunderstorms and Rain
2:19 AM 64.9 °F 63.0 °F 93% 29.84 in 9.0 mi WSW 5.8 mph - 0.00 in Thunderstorm Overcast
2:26 AM 64.9 °F 63.0 °F 93% 29.84 in 8.0 mi West 6.9 mph - 0.00 in   Overcast
2:53 AM 64.0 °F 62.1 °F 93% 29.80 in 10.0 mi WSW 8.1 mph - 0.00 in Rain Light Rain
3:03 AM 64.0 °F 62.1 °F 93% 29.84 in 9.0 mi WSW 9.2 mph - 0.00 in Rain Light Rain
3:53 AM 63.0 °F 60.1 °F 90% 29.79 in 10.0 mi SW 9.2 mph - 0.01 in   Overcast
4:53 AM 62.1 °F 59.0 °F 90% 29.79 in 9.0 mi SW 9.2 mph - 0.01 in Rain Light Rain
5:53 AM 61.0 °F 59.0 °F 93% 29.79 in 5.0 mi SSW 9.2 mph - 0.05 in Rain Rain
6:12 AM 61.0 °F 60.1 °F 97% 29.82 in 2.5 mi SW 10.4 mph - 0.03 in Rain Light Rain
6:38 AM 61.0 °F 59.0 °F 93% 29.82 in 8.0 mi SSW 10.4 mph - 0.06 in Rain Light Rain
6:53 AM 61.0 °F 59.0 °F 93% 29.80 in 10.0 mi SW 10.4 mph - 0.06 in   Mostly Cloudy
7:03 AM 61.0 °F 59.0 °F 93% 29.82 in 10.0 mi SW 9.2 mph - N/A   Partly Cloudy
7:53 AM 64.0 °F 61.0 °F 90% 29.79 in 10.0 mi SW 11.5 mph - N/A   Scattered Clouds
8:53 AM 64.9 °F 60.1 °F 84% 29.78 in 10.0 mi SW 10.4 mph 20.7 mph N/A   Mostly Cloudy
9:40 AM 66.9 °F 60.1 °F 79% 29.80 in 10.0 mi SW 10.4 mph 21.9 mph N/A   Mostly Cloudy
9:53 AM 66.9 °F 59.0 °F 76% 29.78 in 10.0 mi WSW 11.5 mph 19.6 mph N/A   Overcast
10:08 AM 66.9 °F 59.0 °F 76% 29.80 in 10.0 mi WSW 13.8 mph 20.7 mph N/A   Mostly Cloudy
10:15 AM 66.9 °F 59.0 °F 76% 29.80 in 10.0 mi SW 11.5 mph - N/A   Mostly Cloudy
10:53 AM 66.9 °F 59.0 °F 76% 29.77 in 10.0 mi SW 11.5 mph 20.7 mph N/A   Scattered Clouds
11:53 AM 70.0 °F 60.1 °F 71% 29.76 in 10.0 mi SW 17.3 mph 23.0 mph N/A   Scattered Clouds
12:53 PM 72.0 °F 60.1 °F 66% 29.74 in 10.0 mi SW 10.4 mph - N/A   Mostly Cloudy
1:21 PM 71.1 °F 57.0 °F 61% 29.76 in 10.0 mi WSW 11.5 mph 20.7 mph N/A   Mostly Cloudy
1:53 PM 72.0 °F 54.0 °F 53% 29.73 in 10.0 mi West 13.8 mph - N/A   Mostly Cloudy
2:53 PM 73.9 °F 52.0 °F 46% 29.72 in 10.0 mi West 16.1 mph 25.3 mph N/A   Mostly Cloudy
3:53 PM 73.0 °F 51.1 °F 46% 29.71 in 10.0 mi West 19.6 mph 27.6 mph N/A   Mostly Cloudy
4:39 PM 69.1 °F 55.9 °F 63% 29.75 in 10.0 mi NNW 13.8 mph 23.0 mph N/A   Scattered Clouds
4:53 PM 68.0 °F 55.9 °F 65% 29.74 in 10.0 mi NNW 17.3 mph 28.8 mph N/A   Scattered Clouds
5:53 PM 64.0 °F 52.0 °F 65% 29.77 in 10.0 mi NNW 18.4 mph - N/A   Scattered Clouds
6:53 PM 62.1 °F 50.0 °F 65% 29.80 in 10.0 mi NNW 13.8 mph 21.9 mph N/A   Mostly Cloudy
7:53 PM 59.0 °F 46.9 °F 64% 29.82 in 10.0 mi NNW 15.0 mph - N/A   Overcast
8:53 PM 57.0 °F 45.0 °F 64% 29.86 in 10.0 mi WNW 16.1 mph 31.1 mph N/A   Overcast
9:53 PM 54.0 °F 42.1 °F 64% 29.89 in 10.0 mi NW 16.1 mph 25.3 mph N/A   Overcast
10:53 PM 53.1 °F 42.1 °F 66% 29.90 in 10.0 mi WNW 17.3 mph 25.3 mph N/A   Overcast
11:53 PM 51.1 °F 39.0 °F 63% 29.90 in 10.0 mi WNW 13.8 mph 24.2 mph N/A   Overcast